Total_Precipitation_Accumulation
1.09 1.05 0.78 0.96 0.63 0.55 0.54 0.77 0.55 0.86 0.84 0.81 0.65 0.52 0.73 0.89 0.90 0.69 0.43 0.35 0.20 0.30 0.27 0.23 0.19 0.23 0.25 0.26 0.65 0.70 0.71 0.46 0.46 1.15 0.60 0.36 0.40 0.34 0.45 0.27 0.36 0.22 0.14 0.15 0.11 0.17 0.59 0.67 0.53 0.57 0.49 0.51 0.98 1.23 1.12 1.45 0.86 0.41 0.42 0.50 0.52 0.49 0.23 0.40 0.79 0.71 1.22 0.82 0.80 1.40 1.39 1.30 1.47 1.60
0.47 0.87 0.57 0.40 0.42 0.46 0.70 0.64 0.54 0.59 0.51 0.81 0.75 0.63 0.55 1.05 1.13 0.67 0.80 0.58 0.29 0.26 0.20 0.22 0.26 0.22 0.32 0.27 0.49 0.56 0.65 0.49 0.90 1.15 0.79 0.45 0.51 0.49 0.51 0.36 0.53 0.61 0.68 0.91 0.85 0.66 0.44 0.72 0.97 0.80 0.59 0.59 0.73 0.87 0.92 1.11 1.29 0.99 0.81 0.69 0.60 0.37 0.42 0.29 0.22 0.41 0.56 0.89 1.10 1.03 1.09 0.90 0.92 0.79
0.52 0.53 0.51 0.37 0.35 0.54 0.57 0.61 0.65 0.49 0.59 0.59 0.59 0.52 0.51 0.60 0.64 0.85 0.88 0.70 0.29 0.35 0.38 0.19 0.21 0.36 0.49 0.25 0.38 0.26 0.25 0.52 0.78 0.68 0.56 0.46 0.35 0.63 0.72 0.46 0.31 0.37 0.37 0.24 0.32 0.12 0.11 0.13 0.34 0.47 0.44 0.51 0.67 0.61 0.64 0.72 0.51 0.87 1.00 0.73 0.35 0.33 0.44 0.46 0.35 0.31 0.26 0.55 0.83 1.07 0.88 1.03 0.70 0.56
0.87 0.50 0.36 0.30 0.40 0.34 0.56 0.60 0.58 0.59 0.41 0.42 0.65 0.42 0.42 0.62 0.76 1.03 1.18 0.61 0.90 0.23 0.30 0.44 0.42 0.22 0.53 0.55 0.50 0.40 0.29 0.46 0.48 0.73 0.45 0.50 0.46 0.51 0.50 0.52 0.52 0.57 0.56 0.50 0.24 0.25 0.65 0.57 0.37 0.22 0.33 0.72 0.94 0.51 0.86 1.01 0.67 0.64 0.94 0.91 0.64 0.46 0.51 0.46 0.40 0.31 0.24 0.32 0.55 0.91 0.95 0.68 0.70 0.53
0.60 0.56 0.36 0.29 0.28 0.55 0.59 0.39 0.54 0.37 0.58 0.65 0.45 0.49 0.76 0.66 0.91 0.80 0.72 0.64 0.53 0.31 0.37 0.50 0.69 0.83 0.55 0.45 0.22 0.25 0.31 0.31 0.33 0.25 0.42 0.59 0.51 0.59 0.60 0.50 0.74 0.63 0.68 0.62 0.75 0.38 0.30 0.52 0.77 0.87 0.88 0.64 0.68 0.49 0.67 0.64 0.73 0.74 0.59 0.89 0.85 0.55 1.11 0.72 0.39 0.32 0.30 0.33 0.31 0.43 0.88 0.92 0.65 0.70
0.51 0.51 0.41 0.52 0.73 1.00 1.16 0.62 0.57 0.50 0.76 0.81 0.84 0.61 0.50 1.02 1.05 0.37 0.92 0.51 0.50 0.45 0.25 0.27 0.17 0.58 0.35 0.37 0.24 0.34 0.43 0.23 0.60 0.62 0.38 0.43 0.33 0.42 0.61 0.68 0.61 0.57 0.58 0.40 0.56 0.46 0.52 0.65 0.99 1.05 0.34 0.39 0.52 0.37 0.31 0.60 0.95 0.85 0.39 0.65 0.69 0.45 0.51 0.64 0.82 0.53 0.26 0.24 0.28 0.36 0.47 0.75 0.88 0.83
0.53 0.75 0.69 0.61 0.71 1.01 0.62 0.56 1.24 1.10 1.03 0.98 1.01 0.61 0.54 0.66 0.48 0.61 0.66 0.74 0.61 0.32 0.28 0.30 0.33 0.34 0.26 0.27 0.38 0.26 0.17 0.31 0.23 0.43 0.49 0.67 0.60 0.46 0.45 0.78 0.48 0.44 0.69 0.66 0.81 0.62 0.62 0.54 0.35 0.42 0.61 0.76 0.41 0.20 0.53 0.58 0.89 0.49 0.84 0.55 0.93 0.84 0.60 0.43 0.54 0.67 0.63 0.43 0.24 0.33 0.40 0.56 0.71 0.80
0.62 0.76 0.71 0.70 0.77 0.79 0.48 0.46 0.89 1.26 1.26 0.76 0.93 1.09 0.83 0.64 1.11 0.99 1.01 0.92 0.69 0.35 0.33 0.20 0.25 0.30 0.24 0.41 0.25 0.24 0.27 0.33 0.90 0.70 0.30 0.44 0.87 0.81 0.65 0.77 1.11 0.57 0.59 0.43 0.39 0.42 0.67 0.87 0.71 0.82 0.72 0.24 0.31 0.44 0.45 0.49 0.49 0.75 0.65 0.62 0.97 0.63 0.90 0.44 0.44 0.58 0.59 0.61 0.61 0.37 0.35 0.48 0.63 0.75
0.61 1.04 0.47 0.66 0.64 0.76 0.48 0.64 0.60 0.91 0.71 1.03 0.93 1.17 1.19 0.89 1.63 1.14 1.33 1.24 0.91 0.99 0.75 0.48 0.41 0.74 0.31 0.48 0.35 0.25 0.41 0.62 0.68 0.83 0.83 0.58 0.50 0.70 0.65 0.83 0.57 0.65 0.61 0.48 0.42 0.58 0.56 0.61 0.67 0.48 0.57 0.66 0.60 0.29 0.26 0.27 0.46 0.62 0.55 0.39 0.35 0.67 0.67 0.66 0.58 0.43 0.45 0.55 0.50 0.75 0.50 0.24 0.35 0.62
0.75 0.98 0.52 0.60 0.63 0.56 0.66 0.65 0.65 0.91 0.92 0.94 0.99 0.87 0.98 1.00 1.34 0.96 1.14 1.12 1.23 0.93 0.78 0.89 0.90 0.53 0.49 0.88 0.57 0.25 0.27 0.85 0.69 0.85 0.62 1.10 1.02 1.06 0.91 0.82 0.62 0.55 0.53 0.73 0.76 0.85 0.80 0.83 0.47 0.65 0.58 0.52 0.53 0.46 0.57 0.31 0.35 0.87 0.63 0.55 0.62 0.44 0.46 0.60 0.56 0.58 0.42 0.45 0.44 0.44 0.69 0.60 0.35 0.38
0.50 0.66 0.60 0.52 0.55 0.55 0.74 0.67 0.70 0.76 1.11 1.02 1.11 0.60 1.09 1.38 1.37 0.82 0.96 0.82 0.82 0.90 0.69 0.58 0.52 0.56 0.52 0.59 0.64 0.44 0.47 0.52 0.44 0.50 0.86 0.57 0.71 0.71 0.74 0.86 0.78 0.81 0.63 0.63 0.75 0.46 0.53 0.51 0.83 0.67 0.62 0.60 0.58 0.42 0.37 0.40 0.39 0.51 0.62 0.54 0.56 0.43 0.49 0.61 0.59 0.47 0.46 0.42 0.48 0.43 0.52 0.52 0.57 0.42
0.32 0.60 0.79 0.40 0.41 0.48 0.53 0.66 0.76 0.97 0.95 1.03 0.78 0.83 1.36 1.27 0.84 0.60 1.28 0.97 0.83 0.86 0.64 0.50 0.44 0.64 0.49 0.49 0.45 0.51 1.64 1.51 1.00 1.05 0.77 0.60 0.39 0.43 0.47 0.55 0.68 0.78 0.63 0.83 0.67 0.85 0.66 0.75 0.58 0.67 0.62 0.62 0.59 0.58 0.50 0.39 0.40 0.38 0.31 0.36 0.46 0.44 0.46 0.53 0.60 0.56 0.53 0.54 0.49 0.47 0.51 0.51 0.56 0.54
0.43 0.42 0.51 0.34 0.34 0.65 0.53 0.55 0.54 0.73 0.87 1.22 0.84 1.16 0.87 1.35 1.08 1.00 1.00 2.57 1.70 1.05 0.65 0.54 0.47 0.54 0.68 0.43 0.49 1.03 0.57 0.40 0.47 0.78 0.72 0.71 0.73 1.18 0.70 0.82 0.71 0.73 0.73 0.65 0.59 0.62 0.70 0.80 0.82 0.91 0.96 0.95 0.81 0.73 0.62 0.60 0.45 0.41 0.34 0.54 0.36 0.56 0.46 0.56 0.44 0.52 0.61 0.53 0.50 0.54 0.60 0.54 0.40 0.47
0.51 0.47 0.50 0.47 0.34 0.31 0.38 0.53 0.45 0.40 0.51 0.65 0.90 1.29 1.49 1.87 1.49 1.02 0.88 0.93 0.84 0.74 0.79 0.60 0.34 0.45 0.43 0.34 0.38 0.39 0.39 0.30 0.48 0.76 0.75 0.65 0.89 1.25 1.11 1.33 0.98 0.62 0.67 0.88 0.88 0.66 0.58 0.64 0.56 0.62 0.78 0.68 0.87 0.92 0.96 0.82 0.66 0.44 0.36 0.37 0.42 0.48 0.52 0.65 0.42 0.50 0.48 0.50 0.42 0.45 0.63 0.70 0.61 0.39
0.48 0.46 0.66 0.83 0.79 0.50 0.84 0.81 0.29 0.25 0.18 0.35 0.62 0.59 0.50 1.11 1.21 1.22 1.52 0.90 0.80 0.65 0.64 0.31 0.37 0.32 0.33 0.27 0.23 0.38 0.35 0.36 0.37 0.36 0.32 0.67 1.25 0.64 0.88 0.89 0.78 0.89 0.76 0.86 0.86 0.72 0.64 0.82 0.85 0.63 0.55 0.65 0.71 0.90 0.81 0.69 0.67 0.50 0.46 0.36 0.47 0.41 0.40 0.50 0.52 0.49 0.52 0.54 0.46 0.39 0.50 0.58 0.71 0.52
0.47 0.51 0.53 0.47 0.55 0.76 0.58 0.67 1.39 1.11 0.29 0.36 0.60 0.64 0.36 0.28 0.26 0.62 0.97 0.90 0.93 0.69 0.60 0.52 0.44 0.40 0.26 0.21 0.21 0.28 0.27 0.34 0.42 0.45 1.26 1.08 0.53 0.61 0.66 0.48 0.44 1.04 0.84 0.88 0.87 0.77 0.76 0.90 0.78 0.74 0.51 0.50 0.68 0.64 0.57 0.64 0.67 0.53 0.52 0.44 0.40 0.48 0.40 0.54 0.61 0.59 0.56 0.62 0.61 0.47 0.42 0.45 0.48 0.54
0.48 0.78 0.39 0.53 0.59 0.63 0.53 0.69 0.89 0.69 1.33 0.45 0.15 0.34 0.40 0.31 0.24 0.61 0.65 0.47 0.68 1.15 0.96 0.69 0.50 0.36 0.38 0.53 0.32 0.25 0.37 0.61 0.71 0.49 0.55 0.44 0.55 0.65 0.59 0.55 1.07 0.51 0.63 0.88 1.17 1.06 0.89 0.80 0.82 0.66 0.66 0.60 0.57 0.69 0.87 0.57 0.59 0.75 0.70 0.55 0.45 0.38 0.39 0.53 0.56 0.62 0.61 0.56 0.66 0.50 0.47 0.42 0.41 0.44
0.35 0.76 0.57 0.67 0.60 0.48 0.64 0.49 0.33 0.66 0.30 0.52 0.41 0.79 0.81 0.59 0.47 0.76 1.13 0.22 0.28 0.33 0.69 0.84 0.48 0.28 0.32 0.48 0.51 0.49 0.44 0.61 0.59 0.55 0.49 0.51 0.53 0.50 0.62 0.91 0.98 1.04 0.55 0.88 1.17 0.99 0.93 0.88 0.77 0.78 0.62 0.63 0.79 0.59 0.66 0.94 0.77 0.58 0.64 0.78 0.57 0.49 0.42 0.37 0.56 0.60 0.65 0.73 0.72 0.70 0.51 0.47 0.41 0.39
0.59 0.64 0.65 0.60 0.65 0.62 0.45 0.52 0.39 0.46 0.49 0.37 0.51 0.78 0.40 0.35 0.52 0.64 0.91 1.00 0.91 0.93 0.93 0.81 1.00 0.73 0.29 0.69 0.52 0.55 0.68 0.81 0.92 0.79 1.00 0.67 0.89 0.97 1.65 1.19 0.77 0.98 1.01 0.83 1.14 1.27 0.79 0.76 0.83 0.85 0.72 0.71 0.67 0.60 0.65 0.61 0.90 0.99 0.66 0.58 0.84 0.73 0.53 0.61 0.62 0.60 0.81 0.75 0.87 0.91 0.76 0.61 0.57 0.54
0.62 0.63 0.79 0.52 0.70 0.63 0.61 0.59 0.59 0.80 0.79 0.75 0.96 1.33 1.31 0.42 0.34 0.31 0.08 0.10 0.16 0.35 0.99 0.88 1.22 1.18 2.28 0.49 0.82 1.13 0.84 0.71 0.70 0.77 1.36 1.77 1.35 1.00 1.31 1.01 0.59 0.73 0.80 0.97 1.45 1.36 0.70 0.65 0.80 0.87 0.69 0.79 0.81 0.65 0.85 0.71 0.71 0.88 1.08 1.27 0.74 0.86 0.96 0.79 0.63 0.69 0.83 0.87 0.77 0.82 0.84 0.90 0.69 0.57
1.01 0.38 0.54 0.35 0.70 0.63 0.69 0.44 0.42 0.38 0.31 0.52 0.44 0.43 0.70 1.03 0.99 1.03 0.97 0.65 0.50 0.49 0.39 0.17 0.20 0.24 0.31 0.41 0.66 0.65 0.70 1.21 1.74 1.31 1.34 1.12 0.86 1.58 1.21 0.76 1.10 0.70 0.60 0.91 0.80 0.84 0.74 0.70 0.86 0.86 0.88 0.83 0.80 1.01 0.86 0.70 0.75 1.00 1.01 1.20 1.31 0.88 0.83 0.85 0.74 0.67 0.77 0.97 1.12 0.95 1.32 1.68 0.98 0.84
0.30 0.26 0.08 0.12 0.36 0.96 0.45 0.32 0.21 0.22 0.65 0.73 0.62 0.45 0.41 0.18 0.19 0.35 0.35 0.41 0.76 0.32 0.32 0.22 0.28 0.29 0.47 0.35 0.44 0.48 0.55 0.65 0.92 1.54 1.65 1.22 1.12 1.19 0.95 1.09 0.68 1.07 0.55 0.55 0.69 1.16 0.76 0.65 0.56 0.80 0.97 0.94 1.08 0.85 0.98 0.86 0.70 0.68 0.91 0.86 0.93 1.06 1.01 0.74 0.82 0.90 1.12 0.96 0.78 0.69 0.92 1.14 1.17 1.29
0.73 0.15 0.07 0.07 0.10 0.56 1.08 0.40 0.43 0.45 0.73 0.76 0.57 0.48 0.37 0.43 0.21 0.45 0.40 0.71 0.41 0.32 1.05 1.02 1.58 3.82 2.04 0.88 0.83 1.10 0.64 0.90 0.82 1.45 1.28 1.45 1.79 1.70 1.13 1.07 1.11 0.90 0.70 0.79 0.57 1.34 0.85 0.67 0.69 0.73 1.71 2.15 1.14 0.90 0.71 0.69 0.65 0.68 0.85 1.20 1.24 1.02 1.12 1.29 0.93 0.81 0.82 0.95 1.02 0.98 0.79 1.07 1.43 1.58
0.12 0.15 0.10 0.10 0.10 0.09 0.08 0.12 0.11 0.54 0.25 1.66 1.04 0.73 0.60 0.53 0.40 0.38 0.35 0.80 0.90 1.21 1.03 0.77 0.83 1.41 0.95 0.42 0.42 1.77 1.60 1.81 1.99 1.35 1.81 1.74 1.33 1.38 1.27 1.59 0.96 1.02 1.49 1.42 0.67 1.36 1.35 1.11 1.02 0.68 1.17 1.45 1.35 1.12 1.26 0.89 0.73 0.75 0.83 1.12 1.30 1.08 1.09 1.25 1.45 1.57 1.35 1.11 1.28 1.29 1.07 1.16 1.31 1.41
0.19 0.33 0.49 0.90 0.50 0.20 0.17 0.31 0.56 0.24 0.40 0.83 1.51 0.62 0.45 0.37 0.55 0.91 1.09 0.63 0.52 1.06 0.65 0.36 0.35 0.71 0.85 0.41 0.39 1.63 1.32 1.03 1.49 1.91 1.81 1.25 1.55 2.49 2.19 1.69 1.29 1.21 1.13 1.06 0.92 1.41 1.53 1.36 1.28 1.24 1.57 1.61 0.96 0.96 0.93 0.91 0.88 0.95 0.91 0.81 1.07 1.27 1.45 1.68 1.61 1.93 1.66 1.45 1.15 1.08 1.25 1.27 1.21 1.30
0.23 0.23 0.51 0.45 0.36 0.32 0.45 0.48 0.41 0.47 0.52 0.33 0.51 0.45 0.41 0.65 0.26 0.94 0.55 0.55 0.58 0.60 0.73 0.55 0.73 0.74 0.79 0.52 0.45 0.57 0.91 0.79 0.91 1.16 2.51 2.26 1.61 1.52 1.59 1.65 2.26 1.77 1.44 1.37 1.36 2.20 2.16 1.76 1.37 1.84 1.52 1.87 1.42 0.92 1.09 1.01 1.12 1.38 0.98 0.99 0.80 0.97 1.14 1.19 1.42 1.67 1.67 1.97 1.54 1.43 1.47 1.37 1.18 1.34
0.38 0.81 0.50 0.43 0.36 0.30 0.25 0.34 0.38 0.36 0.49 0.62 0.53 0.43 0.33 0.44 0.41 1.04 0.67 0.61 0.48 0.53 0.52 0.62 0.61 0.59 0.99 0.94 1.11 0.79 1.05 1.14 1.91 1.29 1.36 2.17 2.50 1.91 2.05 1.67 1.74 1.80 2.44 1.89 1.73 2.08 2.00 1.88 1.88 1.77 1.77 1.67 1.67 1.51 1.24 1.01 1.50 1.57 1.37 1.30 1.31 1.24 1.52 1.24 1.30 1.43 1.46 1.49 1.35 1.40 1.35 1.28 1.15 1.18
0.79 0.78 0.72 0.42 0.34 0.47 1.00 0.82 0.43 0.41 0.39 0.60 0.60 0.76 0.70 0.59 0.64 0.98 0.76 0.60 0.61 0.84 0.55 0.58 0.60 0.65 0.76 0.88 0.92 1.02 1.04 1.09 1.23 1.06 1.16 1.34 1.94 2.00 1.68 2.21 1.52 1.55 1.45 2.03 2.50 2.08 2.28 2.17 2.30 1.99 2.24 2.32 2.19 2.04 2.15 1.27 1.10 1.06 1.30 1.46 1.31 1.15 1.65 1.37 1.48 1.09 0.98 1.00 1.23 1.34 1.57 1.78 1.66 1.61
0.77 0.68 0.61 0.60 0.72 0.66 0.58 0.60 0.93 0.75 0.69 0.64 0.65 0.76 0.82 0.90 0.91 0.96 0.84 0.74 0.65 0.63 0.64 0.64 0.63 0.70 0.79 1.00 1.12 1.19 1.18 1.23 1.18 1.13 1.20 1.11 1.52 1.59 1.79 1.40 1.72 1.73 1.77 2.21 2.10 2.25 2.28 2.62 2.32 2.24 2.57 2.17 2.42 1.93 1.67 1.60 1.75 1.88 1.66 1.41 1.86 1.54 1.45 1.61 1.31 1.38 1.37 1.29 1.28 1.16 1.23 1.18 1.45 1.40
0.74 0.65 0.61 0.56 0.56 0.59 0.62 0.63 0.72 0.77 0.93 0.92 0.93 0.97 1.08 1.03 0.91 0.86 0.92 0.88 0.78 0.83 0.85 0.89 1.02 1.07 1.03 1.03 1.05 1.14 1.17 1.11 1.33 1.27 1.08 1.41 1.42 1.50 1.68 2.02 1.61 1.63 1.58 2.15 2.34 2.20 2.47 2.09 2.12 2.59 3.10 2.58 2.44 2.51 2.13 2.02 2.29 1.52 1.49 1.72 1.36 1.57 1.45 1.62 1.79 1.43 1.26 1.48 1.22 1.24 1.16 1.07 1.08 1.07
0.77 0.71 0.65 0.63 0.57 0.56 0.52 0.54 0.57 0.67 0.69 0.78 0.99 1.03 0.96 0.93 1.06 1.00 0.82 0.80 0.95 1.08 1.12 1.09 1.11 1.21 1.28 1.25 1.20 1.35 1.20 1.20 1.35 1.37 1.25 1.19 1.24 1.27 1.35 1.44 1.48 1.36 1.53 1.74 2.00 2.26 2.25 2.49 2.26 2.24 3.13 3.13 2.99 2.88 2.58 2.11 1.83 1.74 2.01 1.75 1.47 1.56 1.73 1.80 1.63 1.69 1.45 1.56 1.37 1.33 1.57 1.45 1.33 1.03
0.79 0.72 0.62 0.58 0.59 0.52 0.49 0.50 0.49 0.53 0.56 0.59 0.67 0.88 0.99 0.98 1.02 1.01 0.99 0.96 0.87 0.99 1.02 1.15 1.24 1.25 1.13 1.14 1.30 1.39 1.49 1.43 1.41 1.50 1.51 1.30 1.16 1.25 1.31 1.48 1.59 1.50 1.49 1.63 1.86 2.25 2.32 2.41 2.56 2.52 2.86 2.96 3.13 2.73 2.70 2.60 2.17 2.09 2.32 1.90 1.88 1.62 1.69 1.83 1.58 1.83 1.59 1.60 1.63 1.73 1.61 1.62 1.62 1.54
0.89 0.96 0.86 0.73 0.79 0.72 0.66 0.59 0.50 0.50 0.49 0.52 0.55 0.61 0.71 0.81 0.91 0.92 0.93 0.99 1.02 0.98 0.88 0.92 0.97 1.08 1.30 1.34 1.31 1.41 1.47 1.41 1.45 1.51 1.39 1.34 1.21 1.05 1.11 1.35 1.43 1.50 1.38 1.53 1.52 1.86 2.37 2.48 2.19 2.11 2.06 2.65 3.09 2.93 2.71 2.53 2.71 2.65 2.48 2.47 1.84 1.56 1.69 1.93 1.64 1.84 1.69 1.70 1.61 1.48 1.71 1.80 1.62 1.51
1.00 1.05 0.91 0.90 0.85 0.88 0.95 0.98 0.91 0.82 0.72 0.67 0.64 0.61 0.60 0.60 0.63 0.73 0.83 0.98 0.98 0.86 0.86 0.85 0.98 0.95 0.88 1.05 1.12 1.28 1.44 1.54 1.37 1.34 1.43 1.59 1.42 1.48 1.44 1.40 1.57 1.38 1.40 1.48 1.32 1.49 1.72 1.88 2.05 1.90 2.04 2.12 2.19 2.28 2.54 3.08 2.79 2.31 2.30 2.07 1.75 1.73 1.91 1.93 1.93 2.07 1.83 1.93 1.89 2.02 1.91 1.79 1.92 1.74
0.79 0.89 0.84 0.83 0.80 0.77 0.76 0.77 0.90 0.79 0.76 0.81 0.81 0.92 0.99 1.03 0.96 1.09 1.17 0.99 0.96 1.03 1.05 1.21 1.27 1.05 1.17 1.05 0.89 0.92 1.07 1.29 1.39 1.26 1.30 1.68 1.69 1.47 1.28 1.24 1.31 1.27 1.26 1.29 1.48 1.61 1.58 1.49 1.56 1.77 1.79 2.00 1.72 2.05 1.91 2.29 2.70 2.85 2.34 2.11 2.30 1.99 1.95 2.07 1.96 2.32 2.70 2.33 1.77 1.73 1.75 1.75 1.88 1.78
0.90 0.83 0.78 0.78 0.81 0.64 0.62 0.69 0.67 0.64 0.74 0.67 0.70 0.70 0.73 0.84 0.82 0.90 0.95 0.86 0.88 0.96 1.02 1.06 1.10 1.09 1.05 1.15 1.26 1.26 1.28 1.35 1.44 1.48 1.60 1.57 1.43 1.32 1.21 1.26 1.20 1.32 1.35 1.35 1.42 1.34 1.49 1.59 1.38 1.43 1.70 1.91 1.72 2.38 2.06 2.24 2.15 2.40 2.57 2.91 2.59 2.69 2.47 2.33 2.59 2.26 2.37 2.36 2.04 1.78 1.67 1.86 1.89 1.76
0.45 0.69 0.87 1.05 0.81 0.88 0.83 0.63 0.70 0.83 0.92 0.79 0.78 0.76 0.69 0.72 0.72 0.71 0.74 0.72 0.69 0.85 0.65 0.78 0.91 0.90 0.94 0.91 0.91 0.87 0.92 1.00 1.03 1.15 1.18 1.22 1.36 1.48 1.52 1.39 1.39 1.44 1.36 1.17 1.19 1.37 1.29 1.27 1.37 1.40 1.54 1.66 2.18 2.40 1.84 1.70 1.65 1.62 2.04 2.52 2.38 2.34 2.82 2.38 2.39 2.31 2.39 2.17 2.26 2.09 1.95 1.71 1.72 1.70
0.50 0.41 0.41 0.37 0.34 0.47 0.49 0.65 0.72 0.76 0.60 0.56 0.53 0.60 0.66 0.64 0.58 0.63 0.63 0.63 0.56 0.55 0.62 0.77 0.59 0.58 0.60 0.62 0.64 0.74 0.82 0.81 0.81 0.82 0.85 0.87 0.93 0.98 1.12 1.18 1.23 1.25 1.34 1.37 1.30 1.29 1.32 1.34 1.36 1.42 1.49 1.71 1.73 1.79 1.89 1.75 1.92 1.89 1.74 1.92 2.12 2.10 2.10 2.52 2.55 2.38 2.47 2.13 1.98 2.04 2.01 1.91 1.80 1.86
0.35 0.31 0.27 0.33 0.30 0.26 0.25 0.28 0.38 0.47 0.61 0.60 0.61 0.60 0.60 0.58 0.60 0.54 0.52 0.53 0.51 0.62 0.60 0.65 0.59 0.58 0.54 0.49 0.52 0.50 0.61 0.72 0.74 0.71 0.67 0.69 0.75 0.76 0.74 0.86 0.97 0.93 0.97 1.04 1.12 1.25 1.37 1.51 1.44 1.44 1.57 1.80 2.00 2.05 1.96 2.08 2.47 2.03 1.82 1.82 2.25 2.01 1.87 2.08 2.60 2.24 2.19 2.05 2.06 1.88 1.93 2.09 1.91 1.81
0.26 0.28 0.24 0.23 0.22 0.25 0.20 0.22 0.23 0.25 0.30 0.30 0.34 0.39 0.51 0.50 0.57 0.51 0.50 0.50 0.53 0.50 0.49 0.48 0.40 0.43 0.47 0.53 0.59 0.49 0.50 0.52 0.51 0.53 0.52 0.53 0.54 0.59 0.68 0.73 0.78 0.87 0.90 0.92 0.95 1.03 1.25 1.47 1.54 1.50 1.64 1.92 1.99 1.89 1.96 2.14 2.12 2.14 2.16 1.97 1.84 2.07 1.82 1.83 2.02 2.04 1.95 1.93 1.96 2.16 2.09 2.12 2.10 2.05
0.33 0.20 0.26 0.25 0.24 0.20 0.24 0.30 0.24 0.16 0.13 0.14 0.16 0.18 0.22 0.25 0.32 0.41 0.38 0.38 0.41 0.41 0.39 0.34 0.30 0.33 0.37 0.40 0.39 0.45 0.42 0.37 0.36 0.38 0.42 0.38 0.41 0.46 0.47 0.54 0.59 0.57 0.70 0.85 0.95 1.18 1.41 1.35 1.27 1.24 1.40 1.51 1.49 1.73 1.97 2.13 2.45 2.45 2.63 2.72 2.25 1.96 1.77 1.87 1.90 2.19 2.01 1.71 2.02 2.30 2.03 2.14 2.34 2.25
0.46 0.45 0.17 0.27 0.30 0.26 0.20 0.17 0.13 0.15 0.11 0.09 0.08 0.08 0.10 0.13 0.17 0.25 0.30 0.32 0.32 0.29 0.28 0.30 0.30 0.30 0.30 0.32 0.33 0.33 0.34 0.37 0.35 0.33 0.37 0.38 0.37 0.37 0.40 0.45 0.50 0.48 0.57 0.75 0.88 1.11 1.12 1.08 1.02 1.05 1.17 1.21 1.25 1.50 1.69 1.71 1.97 2.12 2.27 2.47 2.44 2.24 2.07 1.95 1.95 1.91 1.83 1.85 2.14 2.21 2.12 2.02 2.07 2.14
0.37 0.28 0.39 0.33 0.25 0.24 0.19 0.19 0.16 0.14 0.11 0.09 0.08 0.07 0.07 0.09 0.12 0.12 0.14 0.21 0.26 0.29 0.31 0.31 0.33 0.35 0.37 0.34 0.32 0.31 0.34 0.37 0.25 0.27 0.30 0.30 0.32 0.34 0.33 0.32 0.36 0.40 0.47 0.58 0.60 0.68 0.74 0.75 0.80 0.85 0.92 1.05 1.04 1.22 1.48 1.44 1.46 1.60 1.69 1.83 2.04 2.05 2.01 1.85 1.83 1.87 1.87 1.84 1.89 1.83 1.90 1.97 2.14 2.29
0.22 0.33 0.22 0.27 0.48 0.39 0.26 0.23 0.19 0.17 0.13 0.12 0.11 0.10 0.10 0.11 0.13 0.15 0.18 0.22 0.25 0.29 0.36 0.39 0.43 0.43 0.42 0.38 0.32 0.29 0.26 0.25 0.26 0.25 0.25 0.23 0.21 0.22 0.23 0.24 0.27 0.30 0.34 0.38 0.44 0.47 0.49 0.52 0.53 0.63 0.79 0.84 0.83 1.01 1.11 1.18 1.37 1.37 1.49 1.56 1.46 1.57 1.80 1.69 1.59 1.73 1.86 1.68 1.53 1.57 1.45 1.39 1.63 1.65
0.22 0.23 0.20 0.17 0.22 0.29 0.39 0.31 0.26 0.30 0.30 0.27 0.20 0.17 0.20 0.22 0.25 0.28 0.30 0.32 0.32 0.27 0.26 0.24 0.26 0.30 0.32 0.31 0.30 0.30 0.27 0.23 0.22 0.21 0.19 0.19 0.18 0.20 0.18 0.20 0.24 0.28 0.31 0.31 0.36 0.36 0.35 0.36 0.36 0.43 0.53 0.58 0.67 0.82 0.88 1.03 1.12 1.11 1.09 1.09 1.20 1.26 1.30 1.19 1.21 1.32 1.67 2.15 1.86 1.73 1.75 1.71 1.60 1.52